Location: Newark
(0.5300°S, 127.4800°E)
Time: 00:54:14
(UTC+00:00)

Vanguard 3 - Pass Details

Date: 21 September 2019
Orbit: 508 x 3262 km, 33.3° (Epoch: 15 October)

Event Time Altitude Azimuth Distance (km) Brightness Sun altitude
Rises 08:32:05 0° 297° (WNW) 6,299 12.9 12.8°
Reaches altitude 10° 08:37:02 10° 293° (WNW) 4,866 12.7 11.6°
Maximum altitude 08:49:05 52° 221° (SW) 1,777 9.4 8.6°
Drops below altitude 10° 08:55:52 10° 145° (SE) 2,806 9.6 6.9°
Sets 08:58:01 0° 139° (SE) 3,507 10.0 6.3°
